This is the latest recevied weather packets stored in our database for station/object AA8FM-13. If no packets are shown the sender has not sent any weather packets the latest 1 day(s).
| Time | Temp. | Humidity | Pressure | Rain* | Wind** | Luminosity | Snow |
|---|---|---|---|---|---|---|---|
| 1778099857 | 12.78° C | 93% | 1008 hPa | 0 mm | - | 71 W/m² | - |
| 1778099251 | 12.78° C | 94% | 1008 hPa | 0 mm | - | 131 W/m² | - |
| 1778097121 | 12.78° C | 96% | 1007.8 hPa | 0 mm | - | 54 W/m² | - |
| 1778096509 | 12.78° C | 96% | 1007.8 hPa | 0 mm | - | 51 W/m² | - |
| 1778095297 | 12.78° C | 98% | 1007.8 hPa | 0 mm | - | 72 W/m² | - |
| 1778094690 | 12.78° C | 99% | 1007.7 hPa | 0 mm | - | 59 W/m² | - |
| 1778093175 | 12.78° C | 99% | 1007.5 hPa | 0 mm | - | 55 W/m² | - |
| 1778092872 | 13.33° C | 99% | 1007.5 hPa | 0 mm | - | 37 W/m² | - |
| 1778092569 | 13.89° C | 99% | 1007.3 hPa | 0 mm | - | 83 W/m² | - |
| 1778091054 | 13.89° C | 99% | 1007.3 hPa | 0 mm | - | 82 W/m² | - |
| 1778089539 | 13.89° C | 99% | 1007.3 hPa | 0 mm | - | 93 W/m² | - |
| 1778089234 | 13.89° C | 99% | 1007.3 hPa | 0 mm | - | 85 W/m² | - |
| 1778087720 | 14.44° C | 99% | 1007.1 hPa | 0 mm | - | 158 W/m² | - |
| 1778086510 | 15.56° C | 99% | 1006.8 hPa | 0 mm | - | 128 W/m² | - |
| 1778084979 | 15.56° C | 99% | 1006.5 hPa | 0 mm | - | 68 W/m² | - |
| 1778084677 | 15.56° C | 99% | 1006.4 hPa | 1.27 mm | - | 58 W/m² | - |
| 1778084374 | 15.56° C | 99% | 1006.4 hPa | 1.27 mm | - | 72 W/m² | - |
| 1778083158 | 15.56° C | 99% | 1006.3 hPa | 0 mm | - | 75 W/m² | - |
| 1778080521 | 15° C | 99% | 1005.7 hPa | 1.27 mm | - | 48 W/m² | - |
| 1778079006 | 15° C | 99% | 1005.5 hPa | 0 mm | - | 43 W/m² | - |
| 1778078097 | 15° C | 99% | 1005.4 hPa | 0 mm | - | 30 W/m² | - |
| 1778077493 | 15° C | 99% | 1005.2 hPa | 0 mm | - | 45 W/m² | - |
| 1778075980 | 15° C | 99% | 1004.9 hPa | 0 mm | - | 41 W/m² | - |
| 1778075373 | 15° C | 99% | 1004.9 hPa | 0 mm | - | 33 W/m² | - |
| 1778073555 | 14.44° C | 99% | 1004.9 hPa | 0 mm | - | 52 W/m² | - |
* Rain latest hour (hover to see other rain measurements)
** Current wind speed in m/s (hover to see current wind gust speed)